| time (UTC) | temp F | wind direction | speed MPH | gust MPH | rain 1hr in | rain 24hr in | rain mn in | humidity % | barometer mb |
| 20260504044602 | 54 | 229 | 6.0 | 12.0 | 0.00 | 0.00 | 0.00 | 52 | 998.9 |
| 20260504043055 | 53 | 247 | 5.0 | 11.0 | 0.00 | 0.00 | 0.00 | 53 | 999.2 |
| 20260504041600 | 53 | 257 | 6.0 | 11.0 | 0.00 | 0.00 | 0.00 | 52 | 999.5 |
| 20260504034503 | 55 | 255 | 6.0 | 11.0 | 0.00 | 0.00 | 0.00 | 50 | 1000.2 |
| 20260504033016 | 55 | 276 | 4.0 | 8.0 | 0.00 | 0.00 | 0.00 | 49 | 1000.5 |
| 20260504031516 | 55 | 234 | 3.0 | 8.0 | 0.00 | 0.00 | 0.00 | 49 | 1000.8 |
| 20260504030036 | 55 | 190 | 4.0 | 8.0 | 0.00 | 0.00 | 0.00 | 48 | 1001.2 |
| 20260504024545 | 55 | 197 | 3.0 | 7.0 | 0.00 | 0.01 | 0.00 | 50 | 1001.4 |
| 20260504023056 | 55 | 261 | 4.0 | 7.0 | 0.00 | 0.01 | 0.00 | 50 | 1001.5 |
| 20260504021518 | 56 | 283 | 4.0 | 7.0 | 0.00 | 0.01 | 0.00 | 48 | 1001.7 |
| 20260504020035 | 57 | 256 | 3.0 | 7.0 | 0.00 | 0.01 | 0.00 | 46 | 1001.9 |
| 20260504014551 | 59 | 231 | 2.0 | 6.0 | 0.00 | 0.01 | 0.00 | 43 | 1002.1 |
| 20260504013052 | 61 | 238 | 3.0 | 7.0 | 0.00 | 0.01 | 0.00 | 40 | 1002.4 |
| 20260504011559 | 63 | 229 | 1.0 | 7.0 | 0.00 | 0.01 | 0.00 | 38 | 1002.6 |
| 20260504004520 | 65 | 238 | 5.0 | 8.0 | 0.00 | 0.01 | 0.00 | 35 | 1002.9 |
| 20260504003024 | 67 | 261 | 5.0 | 9.0 | 0.00 | 0.01 | 0.00 | 33 | 1003.1 |
| 20260504001542 | 67 | 254 | 6.0 | 10.0 | 0.00 | 0.01 | 0.00 | 32 | 1003.4 |
| 20260504000038 | 68 | 266 | 8.0 | 14.0 | 0.00 | 0.01 | 0.00 | 31 | 1003.6 |
| 20260503234550 | 68 | 259 | 6.0 | 11.0 | 0.00 | 0.01 | 0.00 | 32 | 1003.7 |
| 20260503233052 | 68 | 276 | 7.0 | 12.0 | 0.00 | 0.01 | 0.00 | 32 | 1003.8 |
| 20260503231507 | 69 | 278 | 5.0 | 15.0 | 0.00 | 0.01 | 0.00 | 31 | 1003.8 |
| 20260503230004 | 70 | 257 | 6.0 | 12.0 | 0.00 | 0.01 | 0.00 | 29 | 1004.1 |
| 20260503224505 | 69 | 273 | 6.0 | 11.0 | 0.00 | 0.01 | 0.00 | 29 | 1004.2 |
| 20260503223005 | 69 | 253 | 7.0 | 14.0 | 0.00 | 0.01 | 0.00 | 29 | 1004.3 |
| 20260503221507 | 69 | 263 | 8.0 | 12.0 | 0.00 | 0.01 | 0.00 | 28 | 1004.5 |
| 20260503220038 | 69 | 282 | 4.0 | 12.0 | 0.00 | 0.01 | 0.00 | 31 | 1004.8 |
| 20260503214529 | 69 | 260 | 5.0 | 13.0 | 0.00 | 0.01 | 0.00 | 32 | 1005.0 |
| 20260503213045 | 69 | 288 | 5.0 | 16.0 | 0.00 | 0.01 | 0.00 | 30 | 1005.4 |
| 20260503211542 | 68 | 289 | 8.0 | 15.0 | 0.00 | 0.01 | 0.00 | 31 | 1005.6 |
| 20260503204558 | 67 | 346 | 6.0 | 18.0 | 0.00 | 0.01 | 0.00 | 35 | 1006.1 |
| 20260503203104 | 67 | 296 | 4.0 | 12.0 | 0.00 | 0.01 | 0.00 | 36 | 1006.3 |
| 20260503201501 | 66 | 293 | 6.0 | 11.0 | 0.00 | 0.01 | 0.00 | 36 | 1006.7 |
| 20260503200023 | 66 | 319 | 7.0 | 17.0 | 0.00 | 0.01 | 0.00 | 35 | 1007.0 |
| 20260503194542 | 66 | 300 | 7.0 | 13.0 | 0.00 | 0.01 | 0.00 | 36 | 1007.1 |
| 20260503193053 | 66 | 304 | 7.0 | 13.0 | 0.00 | 0.01 | 0.00 | 39 | 1007.4 |
| 20260503191557 | 65 | 294 | 8.0 | 14.0 | 0.00 | 0.01 | 0.00 | 38 | 1007.7 |
| 20260503190003 | 64 | 329 | 6.0 | 14.0 | 0.00 | 0.01 | 0.00 | 36 | 1007.8 |
| 20260503184506 | 64 | 306 | 8.0 | 15.0 | 0.00 | 0.01 | 0.00 | 36 | 1007.9 |
| 20260503183011 | 64 | 344 | 7.0 | 14.0 | 0.00 | 0.01 | 0.00 | 38 | 1008.4 |
| 20260503181515 | 63 | 5 | 9.0 | 14.0 | 0.00 | 0.01 | 0.00 | 39 | 1008.7 |
| 20260503180030 | 63 | 306 | 8.0 | 17.0 | 0.00 | 0.01 | 0.00 | 39 | 1008.7 |
| 20260503174534 | 62 | 289 | 8.0 | 16.0 | 0.00 | 0.01 | 0.00 | 43 | 1008.9 |
| 20260503173036 | 62 | 322 | 9.0 | 16.0 | 0.00 | 0.01 | 0.00 | 41 | 1009.2 |
| 20260503171542 | 62 | 339 | 12.0 | 19.0 | 0.00 | 0.01 | 0.00 | 42 | 1009.2 |
| 20260503081512 | 45 | 5 | 5.0 | 9.0 | 0.00 | 0.01 | 0.00 | 78 | 1006.2 |